OneWeb SL0540

operational
NORAD ID: 54645 Int'l Des: 2022-166 Owner: ONEWEBN Country: UK Constellation: oneweb
LEOCIRCULARPOLARONEWEB_TYPE

About OneWeb SL0540

Description loading...

Live Position

Loading 3D Globe...

Upcoming Passes

Altitude History

Altitude vs Time

uPlot chart will show altitude changes over time

Two-Line Element Set

1 54645U 22166D 25298.71441807 .00001725 00000-0 41461-2 0 9992
2 54645 87.9168 290.7890 0001598 90.6615 269.4702 13.21816058140550
Epoch: Oct 25, 2025 • Age: 11 hours

Current Status

Altitude 1184.8 km
Velocity 7.26 km/s
Sub-Earth Point -16.98°S, 164.14°W
Launch Date Dec 8, 2022
Age 2.8 years
Type internet

Technical Details

Classification Payload
Mass 148.00 kg
Dry Mass 140.00 kg
Total Mass 148.00 kg
Length 1.30 m
Diameter 1.00 m
Span 5.00 m
Shape Trapezoid+2 pan
Manufacturer ONEWUS
Bus Type ARROW
Phase Status In Orbit
Owner/State ONEWEBN/UK

Large Constellations

Loading constellations...